Weather History for South Hill, VA

Change the Weather History Date:

Wednesday, May 13, 2009

  Actual Average (KEMV) Record (KEMV)
Temperature  
Mean Temperature 60 °F -  
Max Temperature 71 °F 79 °F 89 °F (1991)
Min Temperature 48 °F 53 °F 37 °F (2013)
Degree Days  
Heating Degree Days 6    
Growing Degree Days 10 (Base 50)    
Moisture  
Dew Point 43 °F    
Average Humidity 54    
Maximum Humidity 93    
Minimum Humidity 25    
Precipitation  
Precipitation 0.00 in - - ()
Sea Level Pressure  
Sea Level Pressure 30.39 in    
Wind  
Wind Speed 2 mph (SE)    
Max Wind Speed 10 mph    
Max Gust Speed -    
Visibility 9 miles    
Events      
Averages and records for this station are not official NWS values.
T = Trace of Precipitation, MM = Missing Value Source: NWS Daily Summary

Daily Weather History Graph

Daily Weather History Graph

Search for Another Location

Airport:

Trip Planner

Search our weather history database for the weather conditions in past years. The results will help you decide how hot, cold, wet, or windy it might be!

Date:

Astronomy

May. 13, 2009 Rise Set
Actual Time 6:06 AM EDT 8:11 PM EDT
Civil Twilight 5:37 AM EDT 8:40 PM EDT
Nautical Twilight 5:02 AM EDT 9:15 PM EDT
Astronomical Twilight 4:24 AM EDT 9:53 PM EDT
Moon No Moon Rise 9:18 AM EDT (5/13)
Length of Visible Light 15h 02m
Length of Day
14h 04m
Waning Gibbous, 82% of the Moon is Illuminated
May 13
Waning Gibbous
May 17
Last Quarter
May 24
New
May 30
First Quarter
Jun 7
Full

Hourly Weather History & Observations

Time (EDT) Temp. Dew Point Humidity Pressure Visibility Wind Dir Wind Speed Gust Speed Precip Events Conditions
12:00 AM 55.4 °F 44.6 °F 67% 30.35 in 10.0 mi Calm Calm - N/A   Clear
12:20 AM 53.6 °F 44.6 °F 72% 30.35 in 10.0 mi Calm Calm - N/A   Clear
1:00 AM 53.6 °F 46.4 °F 77% 30.36 in 10.0 mi Calm Calm - N/A   Clear
1:20 AM 53.6 °F 46.4 °F 77% 30.36 in 10.0 mi Calm Calm - N/A   Clear
1:40 AM 51.8 °F 46.4 °F 82% 30.36 in 10.0 mi Calm Calm - N/A   Clear
2:00 AM 51.8 °F 46.4 °F 82% 30.36 in 10.0 mi Calm Calm - N/A   Clear
2:20 AM 51.8 °F 46.4 °F 82% 30.36 in 10.0 mi Calm Calm - N/A   Clear
2:40 AM 51.8 °F 46.4 °F 82% 30.36 in 10.0 mi Calm Calm - N/A   Clear
3:20 AM 50.0 °F 46.4 °F 87% 30.36 in 7.0 mi Calm Calm - N/A   Clear
3:40 AM 50.0 °F 46.4 °F 87% 30.35 in 7.0 mi Calm Calm - N/A   Clear
4:20 AM 48.2 °F 46.4 °F 93% 30.35 in 5.0 mi Calm Calm - N/A   Scattered Clouds
4:40 AM 48.2 °F 46.4 °F 93% 30.36 in 7.0 mi Calm Calm - N/A   Scattered Clouds
5:00 AM 50.0 °F 46.4 °F 87% 30.36 in 7.0 mi Calm Calm - N/A   Mostly Cloudy
5:20 AM 50.0 °F 46.4 °F 87% 30.37 in 7.0 mi Calm Calm - N/A   Overcast
5:40 AM 51.8 °F 46.4 °F 82% 30.37 in 7.0 mi Calm Calm - N/A   Overcast
6:00 AM 51.8 °F 46.4 °F 82% 30.38 in 7.0 mi Calm Calm - N/A   Scattered Clouds
6:20 AM 48.2 °F 46.4 °F 93% 30.38 in 5.0 mi Calm Calm - N/A   Clear
7:00 AM 51.8 °F 46.4 °F 82% 30.39 in 7.0 mi Calm Calm - N/A   Clear
7:20 AM 53.6 °F 48.2 °F 82% 30.40 in 7.0 mi Calm Calm - N/A   Clear
7:40 AM 53.6 °F 48.2 °F 82% 30.40 in 10.0 mi Calm Calm - N/A   Clear
8:00 AM 55.4 °F 48.2 °F 77% 30.40 in 10.0 mi Calm Calm - N/A   Clear
8:40 AM 60.8 °F 48.2 °F 63% 30.41 in 10.0 mi Calm Calm - N/A   Clear
9:00 AM 62.6 °F 46.4 °F 55% 30.42 in 10.0 mi Calm Calm - N/A   Clear
9:20 AM 64.4 °F 42.8 °F 45% 30.42 in 4.0 mi SE 4.6 mph - N/A   Haze
9:40 AM 64.4 °F 39.2 °F 40% 30.42 in 10.0 mi SE 5.8 mph - N/A   Clear
10:00 AM 66.2 °F 39.2 °F 37% 30.42 in 10.0 mi ESE 5.8 mph - N/A   Scattered Clouds
10:20 AM 66.2 °F 41.0 °F 40% 30.43 in 10.0 mi East 3.5 mph - N/A   Clear
10:40 AM 66.2 °F 41.0 °F 40% 30.44 in 10.0 mi ESE 5.8 mph - N/A   Clear
11:00 AM 66.2 °F 42.8 °F 43% 30.44 in 10.0 mi East 5.8 mph - N/A   Scattered Clouds
11:20 AM 68.0 °F 44.6 °F 43% 30.44 in 10.0 mi ESE 4.6 mph - N/A   Clear
11:40 AM 69.8 °F 44.6 °F 40% 30.44 in 10.0 mi East 3.5 mph - N/A   Clear
12:00 PM 69.8 °F 42.8 °F 38% 30.43 in 10.0 mi South 4.6 mph - N/A   Clear
12:20 PM 69.8 °F 44.6 °F 40% 30.42 in 10.0 mi SSE 4.6 mph - N/A   Scattered Clouds
12:40 PM 69.8 °F 42.8 °F 38% 30.42 in 10.0 mi SSE 5.8 mph - N/A   Scattered Clouds
1:00 PM 69.8 °F 42.8 °F 38% 30.41 in 10.0 mi SSE 3.5 mph - N/A   Scattered Clouds
1:20 PM 71.6 °F 42.8 °F 35% 30.41 in 10.0 mi South 4.6 mph - N/A   Scattered Clouds
1:40 PM 71.6 °F 42.8 °F 35% 30.40 in 10.0 mi South 5.8 mph - N/A   Scattered Clouds
2:00 PM 71.6 °F 39.2 °F 31% 30.40 in 10.0 mi SE 3.5 mph - N/A   Clear
2:20 PM 71.6 °F 41.0 °F 33% 30.39 in 10.0 mi Calm Calm - N/A   Clear
2:40 PM 71.6 °F 41.0 °F 33% 30.39 in 10.0 mi ESE 3.5 mph - N/A   Scattered Clouds
3:00 PM 69.8 °F 42.8 °F 38% 30.39 in 10.0 mi SE 5.8 mph - N/A   Scattered Clouds
3:20 PM 71.6 °F 41.0 °F 33% 30.39 in 10.0 mi Calm Calm - N/A   Scattered Clouds
3:40 PM 71.6 °F 37.4 °F 29% 30.39 in 10.0 mi SSE 6.9 mph - N/A   Scattered Clouds
4:00 PM 71.6 °F 39.2 °F 31% 30.38 in 10.0 mi Calm Calm - N/A   Scattered Clouds
4:20 PM 71.6 °F 37.4 °F 29% 30.37 in 10.0 mi SSE 9.2 mph - N/A   Scattered Clouds
4:40 PM 71.6 °F 35.6 °F 27% 30.37 in 10.0 mi SE 3.5 mph - N/A   Scattered Clouds
5:00 PM 71.6 °F 39.2 °F 31% 30.37 in 10.0 mi SSE 4.6 mph - N/A   Clear
5:20 PM 71.6 °F 37.4 °F 29% 30.37 in 10.0 mi South 10.4 mph - N/A   Clear
5:40 PM 71.6 °F 33.8 °F 25% 30.36 in 10.0 mi SSE 6.9 mph - N/A   Clear
6:00 PM 71.6 °F 37.4 °F 29% 30.37 in 10.0 mi South 8.1 mph - N/A   Clear
6:20 PM 71.6 °F 37.4 °F 29% 30.37 in 10.0 mi SSE 4.6 mph - N/A   Clear
6:40 PM 69.8 °F 35.6 °F 28% 30.36 in 10.0 mi South 9.2 mph - N/A   Clear
7:00 PM 69.8 °F 37.4 °F 31% 30.36 in 10.0 mi South 8.1 mph - N/A   Clear
7:20 PM 68.0 °F 39.2 °F 35% 30.36 in 10.0 mi Calm Calm - N/A   Clear
7:40 PM 66.2 °F 41.0 °F 40% 30.36 in 10.0 mi Calm Calm - N/A   Clear
8:00 PM 66.2 °F 42.8 °F 43% 30.36 in 10.0 mi Calm Calm - N/A   Scattered Clouds
8:20 PM 64.4 °F 44.6 °F 49% 30.36 in 10.0 mi SSE 3.5 mph - N/A   Scattered Clouds
8:40 PM 60.8 °F 46.4 °F 59% 30.37 in 10.0 mi Calm Calm - N/A   Clear
9:00 PM 60.8 °F 46.4 °F 59% 30.37 in 10.0 mi Calm Calm - N/A   Clear
9:20 PM 59.0 °F 46.4 °F 63% 30.37 in 10.0 mi SE 3.5 mph - N/A   Clear
9:40 PM 60.8 °F 48.2 °F 63% 30.37 in 10.0 mi SSE 3.5 mph - N/A   Scattered Clouds
10:00 PM 60.8 °F 48.2 °F 63% 30.38 in 10.0 mi Calm Calm - N/A   Scattered Clouds
10:20 PM 60.8 °F 48.2 °F 63% 30.39 in 10.0 mi SSE 3.5 mph - N/A   Clear
10:40 PM 60.8 °F 48.2 °F 63% 30.39 in 10.0 mi Calm Calm - N/A   Clear
11:00 PM 57.2 °F 48.2 °F 72% 30.39 in 10.0 mi Calm Calm - N/A   Clear
11:20 PM 57.2 °F 48.2 °F 72% 30.39 in 10.0 mi Calm Calm - N/A   Clear
11:40 PM 57.2 °F 48.2 °F 72% 30.39 in 10.0 mi Calm Calm - N/A   Clear